Regional Weather Roundup
Issued by NWS

Home | Current Version | Previous Version | Text Only | Print | Product List | Glossary On
Versions: 1 2 3 4 5 6 7 8 9 10 11 12 13 14 15 16 17 18 19 20 21 22 23 24 25 26 27 28 29 30 31 32 33 34 35 36 37 38 39 40 41 42 43 44 45 46 47 48 49 50
000
ASHW40 PHFO 080043
RWRHI

WEATHER ROUNDUP FOR HAWAII
NATIONAL WEATHER SERVICE HONOLULU HI
200 PM HST SUN FEB 07 2016

THIS IS AN AUTOMATED REPORT THAT HAS NOT BEEN QUALITY CONTROLLED.

NOTE..."FAIR" INDICATES FEW OR NO CLOUDS BELOW 12,000 FEET WITH NO
SIGNIFICANT WEATHER AND/OR OBSTRUCTIONS TO VISIBILITY.

* - THESE SITES REPORT LIMITED FIELDS

HIZ001>004-080100-
KAUAI-NIIHAU-

CITY           SKY/WX    TMP DP  RH WIND       PRES   REMARKS
LIHUE APT      MOSUNNY   74  46  36 N17       30.04F
PORT ALLEN*      N/A     77 N/A N/A N12G22      N/A
POIPU*           N/A     79 N/A N/A N8G21       N/A
PRINCEVILLE*     N/A     72 N/A N/A N8G15       N/A
KOKOLE POINT*  NOT AVBL
MOLOAA DAIRY*    N/A     73  52  46 NW3G13      N/A
WAIMEA HTS*      N/A     79  41  25 VRB3G14     N/A
PUU OPAE*        N/A     64  45  48 N14G24      N/A
PUU LUA*       NOT AVBL
MAKAHA RIDGE*    N/A     68  50  52 N7G16       N/A
$$

HIZ005>011-080100-
OAHU-

CITY           SKY/WX    TMP DP  RH WIND       PRES   REMARKS
HONOLULU       PTSUNNY   75  50  41 N14G24    30.01F
KALAELOA       MOSUNNY   77  48  35 NE15G24   30.02F
KANEOHE MCB    MOSUNNY   75  54  47 N20G26    30.00F
WHEELER FIELD  FAIR      70  50  49 N15G24    30.01F
BELLOWS*         N/A    N/A N/A N/A N16G29      N/A
KAHUKU*          N/A    N/A N/A N/A VRB6G15     N/A
WHEELER*         N/A    N/A N/A N/A N14G24      N/A
WAIANAE HARBOR   N/A    N/A N/A N/A N8G18       N/A
DILLINGHAM*      N/A     66  41  39 MISG        N/A
KAHUKU TRN*      N/A     64  41  42 VRB6G18     N/A
KAWAILOA*        N/A     70  50  49 NW8G20      N/A
KII*             N/A     73  50  43 NW15G23     N/A
MAKUA RANGE*     N/A     81  54  39 N6G26       N/A
OAHU FOREST NW   N/A     63  48  59 CALM        N/A
SCHOFIELD BRK*   N/A     61  43  51 MISG        N/A
SCHOFIELD S*   NOT AVBL
WAIANAE VLY*   NOT AVBL
KUAOKALA*        N/A     66  46  48 N22G32      N/A
HONOULIUULI*   NOT AVBL
MOKUOLOE IS*   NOT AVBL
PALEHUA*         N/A     64  48  55 NE3G16      N/A
WAIAWA PHB*    NOT AVBL
$$

HIZ012>013-080100-
MOLOKAI-

CITY           SKY/WX    TMP DP  RH WIND       PRES   REMARKS
MOLOKAI AIRPT  SUNNY     74  51  44 NW22G29   30.01F
KALAUPAPA      NOT AVBL
MAKAPULAPAI*     N/A     75  54  46 N14G22      N/A
MOLOKAI 1*     NOT AVBL
PUU ALII*        N/A     50  50 100 SE1         N/A
$$

HIZ016-080100-
KAHOOLAWE-

CITY           SKY/WX    TMP DP  RH WIND       PRES   REMARKS
KAHOOLAWE*       N/A     68 N/A N/A NE1         N/A
HAKIOAWA*        N/A     70  55  59 MISG      30.38F
HONOKANAIA*      N/A     78  57  48 NW23G35   29.91F
KANELOA*         N/A     73  57  56 N26G46    30.01F
KEALIALALO*      N/A     73  55  53 NE20G37   29.95F
LUA MAKIKA*    NOT AVBL
$$

HIZ014>015-080100-
LANAI-

CITY           SKY/WX    TMP DP  RH WIND       PRES   REMARKS
LANAI CITY     FAIR      71  53  52 N21G30    30.01F
LANAI 1*       NOT AVBL
$$

HIZ017>028-080100-
MAUI-

CITY           SKY/WX    TMP DP  RH WIND       PRES   REMARKS
KAHULUI        MOSUNNY   77  54  44 N15G25    30.00F
KAPALUA-W MAUI MOSUNNY   75  54  46 N20G26    30.01
HANA AIRPORT   CLOUDY    68  32  26 W9        30.02S
HANA*            N/A     70 N/A N/A W9G17       N/A
HALEAKALA SUMM   N/A     39   7  26 W16         N/A
MAALAEA BAY*     N/A     77 N/A N/A NE17G29     N/A
HALEAKALA*     NOT AVBL
KAUPO GAP*       N/A     66  66 100 S6G14       N/A
KULA 1*          N/A     59  47  64 W5G13       N/A
$$

HIZ023>026-080100-
BIG ISLAND OF HAWAII COAST AND LOWER SLOPES-

CITY           SKY/WX    TMP DP  RH WIND       PRES   REMARKS
KAILUA KONA    SUNNY     79  62  56 N29G35    29.90F
HILO           MOSUNNY   74  60  61 N21G28    29.95F
HONOKAA*         N/A     63 N/A N/A VRB1        N/A
KAWAIHAE MWT*    N/A     81 N/A N/A NE2G20      N/A
KAWAIHAE*        N/A     79 N/A N/A NE6       29.90F
SOUTH POINT*     N/A     72 N/A N/A NE6         N/A
UPOLU AIRPORT*   N/A    N/A N/A N/A N20G29      N/A
KAMUELA*       MOCLDY    66  55  68 NE21      30.03S
HAKALAU*         N/A     55  48  78 VRB3G13     N/A
KALOKO-HONOKO*   N/A    N/A N/A N/A CALM      29.87F
PALI 2*          N/A     64  57  77 NE15G26     N/A
KEALAKOMO*       N/A     75  59  57 N30G49      N/A
KAUPULEHU*       N/A    N/A N/A N/A NE12G18     N/A
KAPAPALA*        N/A     69  64  85 W1G8        N/A
LOWER KAHUKU*    N/A     66 N/A N/A SE2G9       N/A
PUHE CS*         N/A     79  57  47 S3          N/A
PUHO CS*         N/A     79  60  51 NW6G12      N/A
PTA KEAMUKU*     N/A     63  55  77 CALM        N/A
WAIKOLOA*        N/A     75  57  53 E20G30      N/A
$$

HIZ027>028-080100-
BIG ISLAND OF HAWAII INTERIOR AND SUMMMITS-

CITY           SKY/WX    TMP DP  RH WIND       PRES   REMARKS
BRADSHAW FIELD SUNNY     64  46  52 W10G17    30.18F
MK VISITOR CEN   N/A     46  21  36 W21         N/A
MAUNA KEA*       N/A     28 -24   9 N62G94      N/A  WCI   8
MAUNA LOA*       N/A     45  -9  10 MISG        N/A
MAUNA LOA 1*   NOT AVBL
PTA KIPUKA*      N/A     48  39  71 NW8         N/A
PTA RANGE 17*    N/A     50  37  62 W8G14       N/A
PTA WEST*        N/A     54  39  58 NW12G20     N/A
NENE CABIN*      N/A     54  46  76 S3G12       N/A
AHUMOA*          N/A     64  43  46 W7G14       N/A
PTA PORTABLE*  NOT AVBL
PUU MALI*        N/A     48  48 100 NW12G17     N/A
$$

HIC003-080100-
NORTHWEST ISLANDS-

CITY           SKY/WX    TMP DP  RH WIND       PRES   REMARKS
MIDWAY ISLAND  SUNNY     72  50  46 S8        30.26F
MIDWAY NOS*      N/A     68 N/A N/A MISG      30.23F
FRENCH FRIGATE NOT AVBL
$$

PHZ110>124-180-080100-
BUOY REPORTS

STATION/POSITION TIME  TEMP    WIND        PRES    WAVE   SWELL
                       AIR SEA DIR/SP/G            HT/PER HT/DIR
                 (UTC) (F)     (DEG/KT/KT) (MB)    (FT/S) (FT/D)
BUOY 51001       0000   67 76  350/ 14/ 19 1019.5F
BUOY 51101       2350   67 76  350/ 14/ 17 1019.5F  12/10  11/340
BUOY 51100       NOT AVBL
BUOY 51002       2350   76 78   20/ 21/ 23 1012.5F   8/ 9   5/ 90
BUOY 51003       2350   73 78   20/ 21/ 25 1015.3F  10/ 9   7/350
BUOY 51004       2350   76 78  310/ 12/ 14 1011.9F   6/10   5/100
BARBERS PT BUOY  NOT AVBL
WAIMEA BAY BUOY  2304      78                N/A     9/10   5/330
KAILUA BAY BUOY  0011      77                N/A     8/10   3
LANAI BUOY       NOT AVBL
BARBERS PT 2     0003      78                N/A     6/11   3/310
PAUWELA MAUI     0007      76                N/A    10/ 8   3/340
HILO             NOT AVBL
KANEOHE BAY BUOY 0006      77                N/A     8/11   3/350
HANALEI KAUAI    0001      77                N/A    12/11   7/320
KAHULUI HARBOR   0000   71 77  340/ 19/ 22 1015.5F
HONOLULU HARBOR  0000   72 77  360/  6/ 11 1016.6F
KILO NALU        NOT AVBL
HILO HARBOR      0000   70 75  360/ 23/ 32 1013.6F
MOKUOLOE         2300   72 77  350/ 17/ 21 1017.0F
NAWILIWILI       0000   72 78  360/ 13/ 20 1016.7F
WHOTS BUOY       NOT AVBL
BUOY 51028       NOT AVBL
$$

......................KEY........................................
  SKY/WX - SKY CONDITIONS/PRESENT WEATHER
  TMP    - TEMPERATURE IN FAHRENHEIT
  DWPT   - DEWPOINT IN FAHRENHEIT
  RH     - RELATIVE HUMIDITY IN PERCENT
  WIND   - DIRECTION AND SPEED /MPH FOR ISLANDS...KTS FOR BUOYS/
  PRES   - MEAN SEA LEVEL PRESSURE IN INCHES OF HG
  VSB    - VISIBILITY IN MILES
  HX     - HEAT INDEX
  WCI    - WIND CHILL INDEX
  VRB    - VARIABLE WIND DIRECTION
  N/A    - NOT AVAILABLE



USA.gov is the U.S. government's official web portal to all federal, state and local government web resources and services.